XM-3 (RHYTHM)

Last updated on Thu Nov 21 2024 00:02:40 GMT+0000 (Coordinated Universal Time)

1 28626U 05008A 24324.92101059 -.00000203 00000+0 00000+0 0 9993 2 28626 0.0154 254.3425 0004924 330.6328 80.8744 1.00271126 36869
UTC large
Height (km)
Speed (km/s)
/
Latitude / Longitude
Inclination (degrees)
Orbital Period (minutes)
Azimuth
Elevation
Range (km)
Doppler Factor

Next 0 passes for location: London (51.5072 / 0.1276)

Sorry there are no passes over London.